Tracking 30058 objects as of 10-Dec-2024
HD Live streaming from Space Station
objects crossing your sky now

STARLINK-11089

Track STARLINK-11089 now!
10-day predictions
STARLINK-11089 is classified as:


NORAD ID: 59426
Int'l Code: 2024-065F
Perigee: 346.6 km
Apogee: 347.2 km
Inclination: 53.2 °
Period: 91.3 minutes
Semi major axis: 6717 km
RCS: Unknown
Launch date: April 7, 2024
Source: United States (US)
Launch site: AIR FORCE WESTERN TEST RANGE (AFWTR)
Your satellite tracking list
Your tracking list is empty




NASA's NSSDC Master Catalog

Two Line Element Set (TLE):
1 59426U 24065F   24344.83372056 -.00000477  00000-0  10722-5 0  9990
2 59426  53.1571 180.5235 0000489  89.9234 270.1843 15.76707741 40026
Source of the keplerian elements: AFSPC